Flag for Poland Weather past 2 weeks in Gliwice, Poland

Now
28 °F

Ice fog.


Feels Like: 23 °F
Forecast: 35 / 46 °F
Wind: 5 mph from West

Location: Katowice Airport

Current Time: Mar 6, 2015 at 4:00:53 AM

Latest Report: Mar 6, 2015 at 3:30 AM


Visibility: 2 mi

Pressure: 30.45 "Hg

Humidity: 93%

Dew point: 27 °F

Location of GliwiceLocation

Historic Weather in Gliwice — Graph

°F

Gliwice temperature yesterday

Maximum temperature yesterday: 39 °F (at 10:00 AM)
Minimum temperature yesterday: 30 °F (at 12:00 AM)
Average temperature yesterday: 35 °F

Past Weeks' High & Low Weather Summary

 TemperatureHumidityPressure
High52 °F (Feb 23, 3:00 PM)100% (Feb 22, 2:30 AM)30.51 "Hg (Feb 22, 2:30 AM)
Low27 °F (Feb 22, 2:30 AM)29% (Feb 21, 1:00 PM)29.50 "Hg (Mar 2, 11:30 AM)
Average38 °F80%29.94 "Hg
* Reported Feb 19 3:00 AM — Mar 6 3:00 AM, Gliwice, Weather by CustomWeather, © 2015

Note: Actual official high and low records may vary slightly from our data, if they occured in-between our weather recording intervals... More about our weather records

Advertising

Gliwice weather history for previous 24 hours

 ConditionsComfort  
Time TempWeatherWind HumidityBarometerVisibility
3:00 AM
Fri, Mar 6
28 °FIce fog.3 mph93%30.45 "Hg3 mi
2:30 AM30 °FIce fog.5 mph93%30.45 "Hg3 mi
2:00 AM30 °FClear.2 mph93%30.45 "Hg4 mi
1:30 AM30 °FIce fog.3 mph93%30.45 "Hg3 mi
1:00 AM30 °FIce fog.3 mph93%30.45 "Hg3 mi
12:30 AM30 °FIce fog.5 mph93%30.45 "Hg3 mi
12:00 AM30 °FIce fog.3 mph93%30.45 "Hg3 mi
11:30 PM
Thu, Mar 5
30 °FIce fog.3 mph93%30.45 "Hg2 mi
11:00 PM30 °FIce fog.1 mph93%30.45 "Hg2 mi
10:30 PM30 °FIce fog.3 mph93%30.45 "Hg2 mi
9:30 PM32 °FPassing clouds.2 mph87%30.45 "Hg4 mi
9:00 PM32 °FPassing clouds.3 mph87%30.42 "Hg4 mi
8:30 PM34 °FPartly cloudy.3 mph81%30.42 "Hg5 mi
8:00 PM34 °FPartly cloudy.7 mph87%30.42 "HgN/A
7:30 PM34 °FPassing clouds.8 mph87%30.42 "HgN/A
7:00 PM34 °FPassing clouds.6 mph87%30.39 "HgN/A
6:30 PM36 °FPassing clouds.7 mph81%30.39 "HgN/A
6:00 PM36 °FPassing clouds.8 mph81%30.39 "HgN/A
5:30 PM37 °FScattered clouds.9 mph75%30.36 "HgN/A
5:00 PM37 °FScattered clouds.8 mph75%30.36 "HgN/A
4:30 PM37 °FScattered clouds.10 mph75%30.36 "HgN/A
4:00 PM37 °FScattered clouds.12 mph75%30.36 "HgN/A
3:30 PM37 °FScattered clouds.13 mph75%30.36 "HgN/A
3:00 PM39 °FScattered clouds.13 mph70%30.36 "HgN/A
2:30 PM39 °FScattered clouds.13 mph70%30.33 "HgN/A
2:00 PM39 °FScattered clouds.7 mph75%30.33 "HgN/A
1:30 PM37 °FSprinkles. Broken clouds.5 mph81%30.33 "HgN/A
1:00 PM37 °FSprinkles. Partly sunny.9 mph81%30.33 "HgN/A
12:30 PM36 °FSnow flurries. Partly sunny.10 mph81%30.33 "HgN/A
12:00 PM39 °FScattered clouds.7 mph65%30.33 "HgN/A
11:30 AM37 °FSnow flurries. Partly sunny.12 mph75%30.33 "HgN/A
11:00 AM39 °FBroken clouds.9 mph65%30.33 "HgN/A
10:30 AM39 °FBroken clouds.13 mph65%30.33 "HgN/A
10:00 AM39 °FPartly sunny.9 mph70%30.33 "HgN/A
9:30 AM37 °FPartly sunny.13 mph75%30.33 "HgN/A
9:00 AM37 °FPassing clouds.8 mph75%30.30 "HgN/A
8:30 AM36 °FPassing clouds.8 mph81%30.30 "HgN/A
8:00 AM34 °FPassing clouds.7 mph81%30.30 "Hg5 mi
7:30 AM34 °FScattered clouds.8 mph81%30.30 "Hg4 mi
7:00 AM34 °FSnow flurries. Scattered clouds.6 mph81%30.30 "Hg4 mi
6:30 AM32 °FPartly sunny.3 mph87%30.30 "HgN/A
6:00 AM34 °FSnow flurries. Passing clouds.5 mph75%30.27 "Hg5 mi
5:30 AM34 °FLight snow. Passing clouds.6 mph75%30.27 "HgN/A
5:00 AM32 °FPassing clouds.6 mph80%30.27 "HgN/A
4:30 AM34 °FLight snow. Passing clouds.6 mph70%30.27 "HgN/A
4:00 AM34 °FPassing clouds.6 mph70%30.27 "HgN/A
Weather by CustomWeather, © 2015

See weather overviewHow to use our weather pages